Погода в Шонгуе

Россия / Мурманская область     68°44′35″N   33°09′18″E
темп.,
°C
ветер,
м/с
пор.,
м/с
влажн.,
%
обл.,
%
осадки,
мм/ч
давл.,
гПа
погр.,
м
22 января, сб
сб2200:00−13юз1110099 0.0 101642
03:00−15юз22100100 0.1 101832
06:00−20ююз21100100 0.0 101914
09:00−18ю2310099 0.1 101842
12:00−16ю3710097 0.0 101890
15:00−15ю379761 0.0 101892
18:00−12ю41194100 0.0 1016231
21:00−10ю5149194 0.0 1014426
23 января, вс
вс2300:00−9ю51888100 0.0 1013673
03:00−9ю62180100 0.0 1008723
06:00−7ююз82083100 0.0 1005716
09:00−7ююз61688100 0.0 1005639
12:00−5ююз51489100 0.1 1005483
15:00−6ююз41595100 0.1 1006390
18:00−3ю51492100 0.0 1006385
21:00+1ююз61690100 0.0 1003808
24 января, пн
пн2400:000ююз6169392 0.0 1002600
03:00+2юз71690100 0.0 1000836
06:00+3юз91886100 0.0 9981012
09:00+3юз91885100 0.0 9961206
12:00+3юз91982100 0.0 9951061
15:00+2юз81788100 0.4 9941080
18:000юз71496100 2.6 9941002
21:00−1зюз51290100 3.1 994677
25 января, вт
вт2500:00−2с3791100 0.2 995461
03:00−5з2691100 0.3 998158
06:00−7зюз310875 0.0 1000308
09:00−7з5128683 0.0 1002457
12:00−8з5148981 0.0 1005528
15:00−5зсз61383100 0.3 1007878
18:00−7зсз6148643 0.0 1010556
21:00−8з5148872 0.0 1013492
26 января, ср
ср2600:00−8з4149037 0.0 1013442
03:00−9зюз413905 0.0 1013379
06:00−12ююз22945 0.0 101331
09:00−13ю369210 0.0 101279
12:00−12ю3128888 0.0 1010247
15:00−11ю5148599 0.0 1008358
18:00−10ю51782100 0.0 1006542
21:00−8ююз61679100 0.0 1006638